Location: Courçay
(47.2523°N, 0.8761°E)
Time: 01:26:44
(UTC+00:00)

Cosmos 2034 Rocket - Pass Details

Date: 18 November 2025
Orbit: 958 x 999 km, 82.9° (Epoch: 04 December)

Event Time Altitude Azimuth Distance (km) Brightness Sun altitude
Rises 17:54:52 0° 168° (SSE) 3,638 7.0 -16.3°
Reaches altitude 10° 17:57:25 10° 163° (SSE) 2,700 6.3 -16.7°
Maximum altitude 18:03:19 49° 90° (E) 1,246 4.1 -17.7°
Drops below altitude 10° 18:09:18 10° 18° (NNE) 2,745 6.1 -18.7°
Sets 18:11:55 0° 14° (NNE) 3,703 6.8 -19.1°
